This is the latest recevied weather packets stored in our database for station/object F5PQL-4. If no packets are shown the sender has not sent any weather packets the latest 10 day(s).
| Time | Temp. | Humidity | Pressure | Rain* | Wind** | Luminosity | Snow |
|---|---|---|---|---|---|---|---|
| 1777917094 | 15.56° C | 75% | 1013.9 hPa | - | - | - | - |
| 1777916194 | 15° C | 75% | 1014 hPa | - | - | - | - |
| 1777915294 | 15° C | 75% | 1014.2 hPa | - | - | - | - |
| 1777914394 | 15.56° C | 75% | 1014.2 hPa | - | - | - | - |
| 1777913494 | 15.56° C | 74% | 1014.4 hPa | - | - | - | - |
| 1777912594 | 15.56° C | 75% | 1014.7 hPa | - | - | - | - |
| 1777911694 | 15.56° C | 74% | 1014.7 hPa | - | - | - | - |
| 1777910794 | 15.56° C | 74% | 1014.8 hPa | - | - | - | - |
| 1777909893 | 15.56° C | 74% | 1014.8 hPa | - | - | - | - |
| 1777908993 | 15.56° C | 74% | 1014.9 hPa | - | - | - | - |
| 1777908093 | 15.56° C | 74% | 1014.9 hPa | - | - | - | - |
| 1777907193 | 15° C | 74% | 1014.9 hPa | - | - | - | - |
| 1777906292 | 15° C | 75% | 1015.1 hPa | - | - | - | - |
| 1777905392 | 15.56° C | 73% | 1015.2 hPa | - | - | - | - |
| 1777904492 | 16.11° C | 73% | 1015.3 hPa | - | - | - | - |
| 1777903592 | 16.11° C | 72% | 1015.4 hPa | - | - | - | - |
| 1777902692 | 16.11° C | 72% | 1015.5 hPa | - | - | - | - |
| 1777901792 | 16.67° C | 69% | 1015.5 hPa | - | - | - | - |
| 1777900892 | 16.67° C | 72% | 1015.5 hPa | - | - | - | - |
| 1777899992 | 15° C | 75% | 1015.7 hPa | - | - | - | - |
| 1777899091 | 15° C | 75% | 1015.7 hPa | - | - | - | - |
| 1777898191 | 15° C | 75% | 1015.7 hPa | - | - | - | - |
| 1777897291 | 15° C | 74% | 1015.9 hPa | - | - | - | - |
| 1777896391 | 15° C | 75% | 1015.9 hPa | - | - | - | - |
| 1777895491 | 15° C | 75% | 1015.9 hPa | - | - | - | - |
* Rain since midnight (hover to see other rain measurements)
** Current wind speed in m/s (hover to see current wind gust speed)